owner,sensor,date,latitude,longitude,air_pressure(mBar),qcFlag 
TCOON,ioos:station:TCOON:146:1,2014-03-07T18:00:00Z,28.1324,-97.0345,1017.6,1111122 
TCOON,ioos:station:TCOON:146:1,2014-03-07T19:00:00Z,28.1324,-97.0345,1016.0,1111122 
TCOON,ioos:station:TCOON:146:1,2014-03-07T20:00:00Z,28.1324,-97.0345,1014.9,1111122 
TCOON,ioos:station:TCOON:146:1,2014-03-07T21:00:00Z,28.1324,-97.0345,1014.0,1111122 
TCOON,ioos:station:TCOON:146:1,2014-03-07T22:00:00Z,28.1324,-97.0345,1013.6,1111122 
TCOON,ioos:station:TCOON:146:1,2014-03-07T23:00:00Z,28.1324,-97.0345,1013.6,1111122 
TCOON,ioos:station:TCOON:146:1,2014-03-08T00:00:00Z,28.1324,-97.0345,1013.1,1111122 
TCOON,ioos:station:TCOON:146:1,2014-03-08T01:00:00Z,28.1324,-97.0345,1012.8,1111122 
TCOON,ioos:station:TCOON:146:1,2014-03-08T02:00:00Z,28.1324,-97.0345,1013.2,1111122 
TCOON,ioos:station:TCOON:146:1,2014-03-08T03:00:00Z,28.1324,-97.0345,1013.8,1111122 
TCOON,ioos:station:TCOON:146:1,2014-03-08T04:00:00Z,28.1324,-97.0345,1013.7,1111122 
TCOON,ioos:station:TCOON:146:1,2014-03-08T05:00:00Z,28.1324,-97.0345,1013.7,1111122 
TCOON,ioos:station:TCOON:146:1,2014-03-08T06:00:00Z,28.1324,-97.0345,1013.6,1111122 
TCOON,ioos:station:TCOON:146:1,2014-03-08T07:00:00Z,28.1324,-97.0345,1013.6,1111122 
TCOON,ioos:station:TCOON:146:1,2014-03-08T08:00:00Z,28.1324,-97.0345,1012.7,1111122 
TCOON,ioos:station:TCOON:146:1,2014-03-08T09:00:00Z,28.1324,-97.0345,1012.4,1111122 
TCOON,ioos:station:TCOON:146:1,2014-03-08T10:00:00Z,28.1324,-97.0345,1011.9,1111122 
TCOON,ioos:station:TCOON:146:1,2014-03-08T11:00:00Z,28.1324,-97.0345,1012.1,1111122 
TCOON,ioos:station:TCOON:146:1,2014-03-08T12:00:00Z,28.1324,-97.0345,1012.7,1111122 
TCOON,ioos:station:TCOON:146:1,2014-03-08T13:00:00Z,28.1324,-97.0345,1013.2,1111122 
TCOON,ioos:station:TCOON:146:1,2014-03-08T14:00:00Z,28.1324,-97.0345,1013.7,1111122 
TCOON,ioos:station:TCOON:146:1,2014-03-08T15:00:00Z,28.1324,-97.0345,1014.3,1111122 
TCOON,ioos:station:TCOON:146:1,2014-03-08T16:00:00Z,28.1324,-97.0345,1014.9,1111122 
TCOON,ioos:station:TCOON:146:1,2014-03-08T17:00:00Z,28.1324,-97.0345,1015.2,1111122 
TCOON,ioos:station:TCOON:146:1,2014-03-08T18:00:00Z,28.1324,-97.0345,1015.1,1111122 
TCOON,ioos:station:TCOON:146:1,2014-03-08T19:00:00Z,28.1324,-97.0345,1014.9,1111122 
TCOON,ioos:station:TCOON:146:1,2014-03-08T20:00:00Z,28.1324,-97.0345,1014.2,1111122 
TCOON,ioos:station:TCOON:146:1,2014-03-08T21:00:00Z,28.1324,-97.0345,1014.2,1111122 
TCOON,ioos:station:TCOON:146:1,2014-03-08T22:00:00Z,28.1324,-97.0345,1014.4,1111122 
TCOON,ioos:station:TCOON:146:1,2014-03-08T23:00:00Z,28.1324,-97.0345,1014.6,1111122 
TCOON,ioos:station:TCOON:146:1,2014-03-09T00:00:00Z,28.1324,-97.0345,1014.8,1111122 
TCOON,ioos:station:TCOON:146:1,2014-03-09T01:00:00Z,28.1324,-97.0345,1015.6,1111122 
TCOON,ioos:station:TCOON:146:1,2014-03-09T02:00:00Z,28.1324,-97.0345,1017.1,1111122 
TCOON,ioos:station:TCOON:146:1,2014-03-09T03:00:00Z,28.1324,-97.0345,1018.4,1111122 
TCOON,ioos:station:TCOON:146:1,2014-03-09T04:00:00Z,28.1324,-97.0345,1019.3,1111122 
TCOON,ioos:station:TCOON:146:1,2014-03-09T05:00:00Z,28.1324,-97.0345,1019.6,1111122 
TCOON,ioos:station:TCOON:146:1,2014-03-09T06:00:00Z,28.1324,-97.0345,1020.1,1111122 
TCOON,ioos:station:TCOON:146:1,2014-03-09T07:00:00Z,28.1324,-97.0345,1020.3,1111122 
TCOON,ioos:station:TCOON:146:1,2014-03-09T08:00:00Z,28.1324,-97.0345,1020.4,1111122 
TCOON,ioos:station:TCOON:146:1,2014-03-09T09:00:00Z,28.1324,-97.0345,1019.9,1111122 
TCOON,ioos:station:TCOON:146:1,2014-03-09T10:00:00Z,28.1324,-97.0345,1020.4,1111122 
TCOON,ioos:station:TCOON:146:1,2014-03-09T11:00:00Z,28.1324,-97.0345,1020.6,1111122 
TCOON,ioos:station:TCOON:146:1,2014-03-09T12:00:00Z,28.1324,-97.0345,1020.5,1111122 
TCOON,ioos:station:TCOON:146:1,2014-03-09T13:00:00Z,28.1324,-97.0345,1021.5,1111122 
TCOON,ioos:station:TCOON:146:1,2014-03-09T14:00:00Z,28.1324,-97.0345,1022.9,1111122 
TCOON,ioos:station:TCOON:146:1,2014-03-09T15:00:00Z,28.1324,-97.0345,1023.5,1111122 
TCOON,ioos:station:TCOON:146:1,2014-03-09T16:00:00Z,28.1324,-97.0345,1024.3,1111122 
TCOON,ioos:station:TCOON:146:1,2014-03-09T17:00:00Z,28.1324,-97.0345,1024.2,1111122 
TCOON,ioos:station:TCOON:146:1,2014-03-09T18:00:00Z,28.1324,-97.0345,1024.1,1111122 
TCOON,ioos:station:TCOON:146:1,2014-03-09T19:00:00Z,28.1324,-97.0345,1023.0,1111122 
TCOON,ioos:station:TCOON:146:1,2014-03-09T20:00:00Z,28.1324,-97.0345,1022.6,1111122 
TCOON,ioos:station:TCOON:146:1,2014-03-09T21:00:00Z,28.1324,-97.0345,1022.3,1111122 
TCOON,ioos:station:TCOON:146:1,2014-03-09T22:00:00Z,28.1324,-97.0345,1021.6,1111122 
TCOON,ioos:station:TCOON:146:1,2014-03-09T23:00:00Z,28.1324,-97.0345,1021.4,1111122 
TCOON,ioos:station:TCOON:146:1,2014-03-10T00:00:00Z,28.1324,-97.0345,1021.6,1111122 
TCOON,ioos:station:TCOON:146:1,2014-03-10T01:00:00Z,28.1324,-97.0345,1022.6,1111122 
TCOON,ioos:station:TCOON:146:1,2014-03-10T02:00:00Z,28.1324,-97.0345,1022.8,1111122 
TCOON,ioos:station:TCOON:146:1,2014-03-10T03:00:00Z,28.1324,-97.0345,1023.7,1111122 
TCOON,ioos:station:TCOON:146:1,2014-03-10T04:00:00Z,28.1324,-97.0345,1024.4,1111122 
TCOON,ioos:station:TCOON:146:1,2014-03-10T05:00:00Z,28.1324,-97.0345,1024.3,1111122 
TCOON,ioos:station:TCOON:146:1,2014-03-10T06:00:00Z,28.1324,-97.0345,1022.2,1111122 
TCOON,ioos:station:TCOON:146:1,2014-03-10T07:00:00Z,28.1324,-97.0345,1021.4,1111122 
TCOON,ioos:station:TCOON:146:1,2014-03-10T08:00:00Z,28.1324,-97.0345,1021.1,1111122 
TCOON,ioos:station:TCOON:146:1,2014-03-10T09:00:00Z,28.1324,-97.0345,1020.8,1111122 
TCOON,ioos:station:TCOON:146:1,2014-03-10T10:00:00Z,28.1324,-97.0345,1020.1,1111122 
TCOON,ioos:station:TCOON:146:1,2014-03-10T11:00:00Z,28.1324,-97.0345,1020.5,1111122 
TCOON,ioos:station:TCOON:146:1,2014-03-10T12:00:00Z,28.1324,-97.0345,1020.5,1111122 
TCOON,ioos:station:TCOON:146:1,2014-03-10T13:00:00Z,28.1324,-97.0345,1020.8,1111122 
TCOON,ioos:station:TCOON:146:1,2014-03-10T14:00:00Z,28.1324,-97.0345,1020.7,1111122 
TCOON,ioos:station:TCOON:146:1,2014-03-10T15:00:00Z,28.1324,-97.0345,1020.6,1111122 
TCOON,ioos:station:TCOON:146:1,2014-03-10T16:00:00Z,28.1324,-97.0345,1020.9,1111122 
TCOON,ioos:station:TCOON:146:1,2014-03-10T17:00:00Z,28.1324,-97.0345,1020.5,1111122 
TCOON,ioos:station:TCOON:146:1,2014-03-10T18:00:00Z,28.1324,-97.0345,1020.0,1111122 
TCOON,ioos:station:TCOON:146:1,2014-03-10T19:00:00Z,28.1324,-97.0345,1018.9,1111122 
TCOON,ioos:station:TCOON:146:1,2014-03-10T20:00:00Z,28.1324,-97.0345,1017.5,1111122 
TCOON,ioos:station:TCOON:146:1,2014-03-10T21:00:00Z,28.1324,-97.0345,1016.4,1111122 
TCOON,ioos:station:TCOON:146:1,2014-03-10T22:00:00Z,28.1324,-97.0345,1015.7,1111122 
TCOON,ioos:station:TCOON:146:1,2014-03-10T23:00:00Z,28.1324,-97.0345,1015.9,1111122 
TCOON,ioos:station:TCOON:146:1,2014-03-11T00:00:00Z,28.1324,-97.0345,1016.0,1111122 
TCOON,ioos:station:TCOON:146:1,2014-03-11T01:00:00Z,28.1324,-97.0345,1015.6,1111122 
TCOON,ioos:station:TCOON:146:1,2014-03-11T02:00:00Z,28.1324,-97.0345,1013.8,1111122 
TCOON,ioos:station:TCOON:146:1,2014-03-11T03:00:00Z,28.1324,-97.0345,1013.5,1111122 
TCOON,ioos:station:TCOON:146:1,2014-03-11T04:00:00Z,28.1324,-97.0345,1014.4,1111122 
TCOON,ioos:station:TCOON:146:1,2014-03-11T05:00:00Z,28.1324,-97.0345,1014.3,1111122 
TCOON,ioos:station:TCOON:146:1,2014-03-11T06:00:00Z,28.1324,-97.0345,1013.6,1111122 
TCOON,ioos:station:TCOON:146:1,2014-03-11T07:00:00Z,28.1324,-97.0345,1013.2,1111122 
TCOON,ioos:station:TCOON:146:1,2014-03-11T08:00:00Z,28.1324,-97.0345,1012.6,1111122 
TCOON,ioos:station:TCOON:146:1,2014-03-11T09:00:00Z,28.1324,-97.0345,1011.3,1111122 
TCOON,ioos:station:TCOON:146:1,2014-03-11T10:00:00Z,28.1324,-97.0345,1010.4,1111122 
TCOON,ioos:station:TCOON:146:1,2014-03-11T11:00:00Z,28.1324,-97.0345,1010.1,1111122 
TCOON,ioos:station:TCOON:146:1,2014-03-11T12:00:00Z,28.1324,-97.0345,1010.1,1111122 
TCOON,ioos:station:TCOON:146:1,2014-03-11T13:00:00Z,28.1324,-97.0345,1010.0,1111122 
TCOON,ioos:station:TCOON:146:1,2014-03-11T14:00:00Z,28.1324,-97.0345,1010.1,1111122 
TCOON,ioos:station:TCOON:146:1,2014-03-11T15:00:00Z,28.1324,-97.0345,1010.2,1111122 
TCOON,ioos:station:TCOON:146:1,2014-03-11T16:00:00Z,28.1324,-97.0345,1010.2,1111122 
TCOON,ioos:station:TCOON:146:1,2014-03-11T17:00:00Z,28.1324,-97.0345,1010.2,1111122 
TCOON,ioos:station:TCOON:146:1,2014-03-11T18:00:00Z,28.1324,-97.0345,1009.3,1111122 
TCOON,ioos:station:TCOON:146:1,2014-03-11T19:00:00Z,28.1324,-97.0345,1008.4,1111122 
TCOON,ioos:station:TCOON:146:1,2014-03-11T20:00:00Z,28.1324,-97.0345,1007.3,1111122 
TCOON,ioos:station:TCOON:146:1,2014-03-11T21:00:00Z,28.1324,-97.0345,1006.4,1111122 
TCOON,ioos:station:TCOON:146:1,2014-03-11T22:00:00Z,28.1324,-97.0345,1005.8,1111122 
TCOON,ioos:station:TCOON:146:1,2014-03-11T23:00:00Z,28.1324,-97.0345,1005.4,1111122 
TCOON,ioos:station:TCOON:146:1,2014-03-12T00:00:00Z,28.1324,-97.0345,1005.4,1111122 
TCOON,ioos:station:TCOON:146:1,2014-03-12T01:00:00Z,28.1324,-97.0345,1005.7,1111122 
TCOON,ioos:station:TCOON:146:1,2014-03-12T02:00:00Z,28.1324,-97.0345,1006.6,1111122 
TCOON,ioos:station:TCOON:146:1,2014-03-12T03:00:00Z,28.1324,-97.0345,1007.0,1111122 
TCOON,ioos:station:TCOON:146:1,2014-03-12T04:00:00Z,28.1324,-97.0345,1007.1,1111122 
TCOON,ioos:station:TCOON:146:1,2014-03-12T05:00:00Z,28.1324,-97.0345,1007.0,1111122 
TCOON,ioos:station:TCOON:146:1,2014-03-12T06:00:00Z,28.1324,-97.0345,1007.0,1111122 
TCOON,ioos:station:TCOON:146:1,2014-03-12T07:00:00Z,28.1324,-97.0345,1006.9,1111122 
TCOON,ioos:station:TCOON:146:1,2014-03-12T08:00:00Z,28.1324,-97.0345,1007.0,1111122 
TCOON,ioos:station:TCOON:146:1,2014-03-12T09:00:00Z,28.1324,-97.0345,1007.5,1111122 
TCOON,ioos:station:TCOON:146:1,2014-03-12T10:00:00Z,28.1324,-97.0345,1009.7,1111122 
TCOON,ioos:station:TCOON:146:1,2014-03-12T11:00:00Z,28.1324,-97.0345,1011.0,1111122 
TCOON,ioos:station:TCOON:146:1,2014-03-12T12:00:00Z,28.1324,-97.0345,1012.6,1111122 
TCOON,ioos:station:TCOON:146:1,2014-03-12T13:00:00Z,28.1324,-97.0345,1014.7,1111122 
TCOON,ioos:station:TCOON:146:1,2014-03-12T14:00:00Z,28.1324,-97.0345,1016.0,1111122 
TCOON,ioos:station:TCOON:146:1,2014-03-12T15:00:00Z,28.1324,-97.0345,1017.2,1111122 
TCOON,ioos:station:TCOON:146:1,2014-03-12T16:00:00Z,28.1324,-97.0345,1019.2,1111122 
TCOON,ioos:station:TCOON:146:1,2014-03-12T17:00:00Z,28.1324,-97.0345,1019.7,1111122 
TCOON,ioos:station:TCOON:146:1,2014-03-12T18:00:00Z,28.1324,-97.0345,1020.5,1111122 
TCOON,ioos:station:TCOON:146:1,2014-03-12T19:00:00Z,28.1324,-97.0345,1020.1,1111122 
TCOON,ioos:station:TCOON:146:1,2014-03-12T20:00:00Z,28.1324,-97.0345,1019.4,1111122 
TCOON,ioos:station:TCOON:146:1,2014-03-12T21:00:00Z,28.1324,-97.0345,1019.0,1111122 
TCOON,ioos:station:TCOON:146:1,2014-03-12T22:00:00Z,28.1324,-97.0345,1018.9,1111122 
TCOON,ioos:station:TCOON:146:1,2014-03-12T23:00:00Z,28.1324,-97.0345,1019.1,1111122 
TCOON,ioos:station:TCOON:146:1,2014-03-13T00:00:00Z,28.1324,-97.0345,1019.8,1111122 
TCOON,ioos:station:TCOON:146:1,2014-03-13T01:00:00Z,28.1324,-97.0345,1021.1,1111122 
TCOON,ioos:station:TCOON:146:1,2014-03-13T02:00:00Z,28.1324,-97.0345,1022.2,1111122 
TCOON,ioos:station:TCOON:146:1,2014-03-13T03:00:00Z,28.1324,-97.0345,1023.1,1111122 
TCOON,ioos:station:TCOON:146:1,2014-03-13T04:00:00Z,28.1324,-97.0345,1023.8,1111122 
TCOON,ioos:station:TCOON:146:1,2014-03-13T05:00:00Z,28.1324,-97.0345,1024.5,1111122 
TCOON,ioos:station:TCOON:146:1,2014-03-13T06:00:00Z,28.1324,-97.0345,1024.8,1111122 
TCOON,ioos:station:TCOON:146:1,2014-03-13T07:00:00Z,28.1324,-97.0345,1024.9,1111122 
TCOON,ioos:station:TCOON:146:1,2014-03-13T08:00:00Z,28.1324,-97.0345,1025.0,1111122 
TCOON,ioos:station:TCOON:146:1,2014-03-13T09:00:00Z,28.1324,-97.0345,1024.8,1111122 
TCOON,ioos:station:TCOON:146:1,2014-03-13T10:00:00Z,28.1324,-97.0345,1024.8,1111122 
TCOON,ioos:station:TCOON:146:1,2014-03-13T11:00:00Z,28.1324,-97.0345,1025.4,1111122 
TCOON,ioos:station:TCOON:146:1,2014-03-13T12:00:00Z,28.1324,-97.0345,1025.6,1111122 
TCOON,ioos:station:TCOON:146:1,2014-03-13T13:00:00Z,28.1324,-97.0345,1026.1,1111122 
TCOON,ioos:station:TCOON:146:1,2014-03-13T14:00:00Z,28.1324,-97.0345,1026.9,1111122 
TCOON,ioos:station:TCOON:146:1,2014-03-13T15:00:00Z,28.1324,-97.0345,1027.5,1111122 
TCOON,ioos:station:TCOON:146:1,2014-03-13T16:00:00Z,28.1324,-97.0345,1027.3,1111122 
TCOON,ioos:station:TCOON:146:1,2014-03-13T17:00:00Z,28.1324,-97.0345,1026.9,1111122 
TCOON,ioos:station:TCOON:146:1,2014-03-13T18:00:00Z,28.1324,-97.0345,1026.4,1111122 
TCOON,ioos:station:TCOON:146:1,2014-03-13T19:00:00Z,28.1324,-97.0345,1025.2,1111122 
TCOON,ioos:station:TCOON:146:1,2014-03-13T20:00:00Z,28.1324,-97.0345,1024.2,1111122 
TCOON,ioos:station:TCOON:146:1,2014-03-13T21:00:00Z,28.1324,-97.0345,1023.2,1111122 
TCOON,ioos:station:TCOON:146:1,2014-03-13T22:00:00Z,28.1324,-97.0345,1022.4,1111122 
TCOON,ioos:station:TCOON:146:1,2014-03-13T23:00:00Z,28.1324,-97.0345,1022.1,1111122 
TCOON,ioos:station:TCOON:146:1,2014-03-14T00:00:00Z,28.1324,-97.0345,1021.7,1111122 
TCOON,ioos:station:TCOON:146:1,2014-03-14T01:00:00Z,28.1324,-97.0345,1021.5,1111122 
TCOON,ioos:station:TCOON:146:1,2014-03-14T02:00:00Z,28.1324,-97.0345,1021.2,1111122 
TCOON,ioos:station:TCOON:146:1,2014-03-14T03:00:00Z,28.1324,-97.0345,1021.3,1111122 
TCOON,ioos:station:TCOON:146:1,2014-03-14T04:00:00Z,28.1324,-97.0345,1021.0,1111122 
TCOON,ioos:station:TCOON:146:1,2014-03-14T05:00:00Z,28.1324,-97.0345,1020.6,1111122 
TCOON,ioos:station:TCOON:146:1,2014-03-14T06:00:00Z,28.1324,-97.0345,1019.8,1111122 
TCOON,ioos:station:TCOON:146:1,2014-03-14T07:00:00Z,28.1324,-97.0345,1019.0,1111122 
TCOON,ioos:station:TCOON:146:1,2014-03-14T08:00:00Z,28.1324,-97.0345,1018.2,1111122 
TCOON,ioos:station:TCOON:146:1,2014-03-14T09:00:00Z,28.1324,-97.0345,1017.6,1111122 
TCOON,ioos:station:TCOON:146:1,2014-03-14T13:00:00Z,28.1324,-97.0345,1017.2,1111122 
TCOON,ioos:station:TCOON:146:1,2014-03-14T14:00:00Z,28.1324,-97.0345,1017.7,1111122 
TCOON,ioos:station:TCOON:146:1,2014-03-14T15:00:00Z,28.1324,-97.0345,1018.4,1111122 
TCOON,ioos:station:TCOON:146:1,2014-03-14T16:00:00Z,28.1324,-97.0345,1018.4,1111122 
TCOON,ioos:station:TCOON:146:1,2014-03-14T17:00:00Z,28.1324,-97.0345,1018.6,1111122 
TCOON,ioos:station:TCOON:146:1,2014-03-14T18:00:00Z,28.1324,-97.0345,1018.4,1111122 
TCOON,ioos:station:TCOON:146:1,2014-03-14T19:00:00Z,28.1324,-97.0345,1017.4,1111122 
TCOON,ioos:station:TCOON:146:1,2014-03-14T20:00:00Z,28.1324,-97.0345,1016.0,1111122 
TCOON,ioos:station:TCOON:146:1,2014-03-14T21:00:00Z,28.1324,-97.0345,1015.4,1111122 
TCOON,ioos:station:TCOON:146:1,2014-03-14T22:00:00Z,28.1324,-97.0345,1014.8,1111122 
TCOON,ioos:station:TCOON:146:1,2014-03-14T23:00:00Z,28.1324,-97.0345,1014.5,1111122 
TCOON,ioos:station:TCOON:146:1,2014-03-15T00:00:00Z,28.1324,-97.0345,1014.5,1111122 
TCOON,ioos:station:TCOON:146:1,2014-03-15T01:00:00Z,28.1324,-97.0345,1014.6,1111122 
TCOON,ioos:station:TCOON:146:1,2014-03-15T02:00:00Z,28.1324,-97.0345,1014.8,1111122 
TCOON,ioos:station:TCOON:146:1,2014-03-15T03:00:00Z,28.1324,-97.0345,1014.9,1111122 
TCOON,ioos:station:TCOON:146:1,2014-03-15T04:00:00Z,28.1324,-97.0345,1015.0,1111122 
TCOON,ioos:station:TCOON:146:1,2014-03-15T05:00:00Z,28.1324,-97.0345,1015.1,1111122 
TCOON,ioos:station:TCOON:146:1,2014-03-15T06:00:00Z,28.1324,-97.0345,1014.3,1111122 
TCOON,ioos:station:TCOON:146:1,2014-03-15T07:00:00Z,28.1324,-97.0345,1013.2,1111122 
TCOON,ioos:station:TCOON:146:1,2014-03-15T08:00:00Z,28.1324,-97.0345,1013.8,1111122 
TCOON,ioos:station:TCOON:146:1,2014-03-15T09:00:00Z,28.1324,-97.0345,1013.1,1111122 
TCOON,ioos:station:TCOON:146:1,2014-03-15T10:00:00Z,28.1324,-97.0345,1012.6,1111122 
TCOON,ioos:station:TCOON:146:1,2014-03-15T11:00:00Z,28.1324,-97.0345,1012.2,1111122 
TCOON,ioos:station:TCOON:146:1,2014-03-15T12:00:00Z,28.1324,-97.0345,1012.0,1111122 
TCOON,ioos:station:TCOON:146:1,2014-03-15T13:00:00Z,28.1324,-97.0345,1012.3,1111122 
TCOON,ioos:station:TCOON:146:1,2014-03-15T14:00:00Z,28.1324,-97.0345,1012.1,1111122 
TCOON,ioos:station:TCOON:146:1,2014-03-15T15:00:00Z,28.1324,-97.0345,1012.2,1111122 
TCOON,ioos:station:TCOON:146:1,2014-03-15T16:00:00Z,28.1324,-97.0345,1012.3,1111122 
TCOON,ioos:station:TCOON:146:1,2014-03-15T17:00:00Z,28.1324,-97.0345,1011.9,1111122 
TCOON,ioos:station:TCOON:146:1,2014-03-15T18:00:00Z,28.1324,-97.0345,1011.3,1111122 
TCOON,ioos:station:TCOON:146:1,2014-03-15T19:00:00Z,28.1324,-97.0345,1010.3,1111122 
TCOON,ioos:station:TCOON:146:1,2014-03-15T20:00:00Z,28.1324,-97.0345,1008.8,1111122 
TCOON,ioos:station:TCOON:146:1,2014-03-15T21:00:00Z,28.1324,-97.0345,1007.7,1111122 
TCOON,ioos:station:TCOON:146:1,2014-03-15T22:00:00Z,28.1324,-97.0345,1007.2,1111122 
TCOON,ioos:station:TCOON:146:1,2014-03-15T23:00:00Z,28.1324,-97.0345,1006.4,1111122 
TCOON,ioos:station:TCOON:146:1,2014-03-16T00:00:00Z,28.1324,-97.0345,1006.2,1111122 
TCOON,ioos:station:TCOON:146:1,2014-03-16T01:00:00Z,28.1324,-97.0345,1006.7,1111122 
TCOON,ioos:station:TCOON:146:1,2014-03-16T02:00:00Z,28.1324,-97.0345,1006.9,1111122 
TCOON,ioos:station:TCOON:146:1,2014-03-16T03:00:00Z,28.1324,-97.0345,1006.9,1111122 
TCOON,ioos:station:TCOON:146:1,2014-03-16T04:00:00Z,28.1324,-97.0345,1007.0,1111122 
TCOON,ioos:station:TCOON:146:1,2014-03-16T05:00:00Z,28.1324,-97.0345,1006.8,1111122 
TCOON,ioos:station:TCOON:146:1,2014-03-17T14:00:00Z,28.1324,-97.0345,1017.8,1111122 
TCOON,ioos:station:TCOON:146:1,2014-03-17T15:00:00Z,28.1324,-97.0345,1017.3,1111122 
TCOON,ioos:station:TCOON:146:1,2014-03-17T16:00:00Z,28.1324,-97.0345,1017.3,1111122 
TCOON,ioos:station:TCOON:146:1,2014-03-17T17:00:00Z,28.1324,-97.0345,1017.3,1111122 
TCOON,ioos:station:TCOON:146:1,2014-03-17T18:00:00Z,28.1324,-97.0345,1016.3,1111122 
TCOON,ioos:station:TCOON:146:1,2014-03-17T19:00:00Z,28.1324,-97.0345,1015.0,1111122 
TCOON,ioos:station:TCOON:146:1,2014-03-17T20:00:00Z,28.1324,-97.0345,1013.5,1111122 
TCOON,ioos:station:TCOON:146:1,2014-03-17T21:00:00Z,28.1324,-97.0345,1012.5,1111122 
TCOON,ioos:station:TCOON:146:1,2014-03-17T22:00:00Z,28.1324,-97.0345,1011.6,1111122 
TCOON,ioos:station:TCOON:146:1,2014-03-17T23:00:00Z,28.1324,-97.0345,1010.7,1111122 
TCOON,ioos:station:TCOON:146:1,2014-03-18T00:00:00Z,28.1324,-97.0345,1010.1,1111122 
TCOON,ioos:station:TCOON:146:1,2014-03-18T01:00:00Z,28.1324,-97.0345,1010.1,1111122 
TCOON,ioos:station:TCOON:146:1,2014-03-18T02:00:00Z,28.1324,-97.0345,1010.1,1111122 
TCOON,ioos:station:TCOON:146:1,2014-03-18T03:00:00Z,28.1324,-97.0345,1010.3,1111122 
TCOON,ioos:station:TCOON:146:1,2014-03-18T04:00:00Z,28.1324,-97.0345,1010.6,1111122 
TCOON,ioos:station:TCOON:146:1,2014-03-18T05:00:00Z,28.1324,-97.0345,1010.2,1111122 
TCOON,ioos:station:TCOON:146:1,2014-03-18T06:00:00Z,28.1324,-97.0345,1010.3,1111122 
TCOON,ioos:station:TCOON:146:1,2014-03-18T07:00:00Z,28.1324,-97.0345,1009.8,1111122 
TCOON,ioos:station:TCOON:146:1,2014-03-18T08:00:00Z,28.1324,-97.0345,1009.7,1111122 
TCOON,ioos:station:TCOON:146:1,2014-03-18T09:00:00Z,28.1324,-97.0345,1009.5,1111122 
TCOON,ioos:station:TCOON:146:1,2014-03-18T10:00:00Z,28.1324,-97.0345,1008.9,1111122 
TCOON,ioos:station:TCOON:146:1,2014-03-18T11:00:00Z,28.1324,-97.0345,1008.6,1111122 
TCOON,ioos:station:TCOON:146:1,2014-03-18T12:00:00Z,28.1324,-97.0345,1008.5,1111122 
TCOON,ioos:station:TCOON:146:1,2014-03-18T13:00:00Z,28.1324,-97.0345,1008.5,1111122 
TCOON,ioos:station:TCOON:146:1,2014-03-18T14:00:00Z,28.1324,-97.0345,1009.0,1111122 
TCOON,ioos:station:TCOON:146:1,2014-03-18T15:00:00Z,28.1324,-97.0345,1009.8,1111122 
TCOON,ioos:station:TCOON:146:1,2014-03-18T16:00:00Z,28.1324,-97.0345,1009.7,1111122 
TCOON,ioos:station:TCOON:146:1,2014-03-18T17:00:00Z,28.1324,-97.0345,1009.8,1111122 
TCOON,ioos:station:TCOON:146:1,2014-03-18T18:00:00Z,28.1324,-97.0345,1009.6,1111122 
TCOON,ioos:station:TCOON:146:1,2014-03-18T19:00:00Z,28.1324,-97.0345,1008.6,1111122 
TCOON,ioos:station:TCOON:146:1,2014-03-18T20:00:00Z,28.1324,-97.0345,1008.0,1111122 
TCOON,ioos:station:TCOON:146:1,2014-03-18T21:00:00Z,28.1324,-97.0345,1007.5,1111122 
TCOON,ioos:station:TCOON:146:1,2014-03-18T22:00:00Z,28.1324,-97.0345,1007.3,1111122 
TCOON,ioos:station:TCOON:146:1,2014-03-18T23:00:00Z,28.1324,-97.0345,1007.1,1111122 
TCOON,ioos:station:TCOON:146:1,2014-03-19T00:00:00Z,28.1324,-97.0345,1007.7,1111122 
TCOON,ioos:station:TCOON:146:1,2014-03-19T01:00:00Z,28.1324,-97.0345,1008.1,1111122 
TCOON,ioos:station:TCOON:146:1,2014-03-19T02:00:00Z,28.1324,-97.0345,1008.7,1111122 
TCOON,ioos:station:TCOON:146:1,2014-03-19T03:00:00Z,28.1324,-97.0345,1010.1,1111122 
TCOON,ioos:station:TCOON:146:1,2014-03-19T04:00:00Z,28.1324,-97.0345,1010.9,1111122 
TCOON,ioos:station:TCOON:146:1,2014-03-19T05:00:00Z,28.1324,-97.0345,1011.3,1111122 
TCOON,ioos:station:TCOON:146:1,2014-03-19T06:00:00Z,28.1324,-97.0345,1011.7,1111122 
TCOON,ioos:station:TCOON:146:1,2014-03-19T07:00:00Z,28.1324,-97.0345,1011.6,1111122 
TCOON,ioos:station:TCOON:146:1,2014-03-19T08:00:00Z,28.1324,-97.0345,1011.3,1111122 
TCOON,ioos:station:TCOON:146:1,2014-03-19T09:00:00Z,28.1324,-97.0345,1011.1,1111122 
TCOON,ioos:station:TCOON:146:1,2014-03-19T10:00:00Z,28.1324,-97.0345,1011.4,1111122 
TCOON,ioos:station:TCOON:146:1,2014-03-19T11:00:00Z,28.1324,-97.0345,1011.3,1111122 
TCOON,ioos:station:TCOON:146:1,2014-03-19T12:00:00Z,28.1324,-97.0345,1013.8,1111122 
TCOON,ioos:station:TCOON:146:1,2014-03-19T13:00:00Z,28.1324,-97.0345,1015.2,1111122 
TCOON,ioos:station:TCOON:146:1,2014-03-19T14:00:00Z,28.1324,-97.0345,1016.3,1111122 
TCOON,ioos:station:TCOON:146:1,2014-03-19T15:00:00Z,28.1324,-97.0345,1017.2,1111122 
TCOON,ioos:station:TCOON:146:1,2014-03-19T16:00:00Z,28.1324,-97.0345,1017.8,1111122 
TCOON,ioos:station:TCOON:146:1,2014-03-19T17:00:00Z,28.1324,-97.0345,1018.2,1111122 
TCOON,ioos:station:TCOON:146:1,2014-03-19T18:00:00Z,28.1324,-97.0345,1017.9,1111122 
TCOON,ioos:station:TCOON:146:1,2014-03-19T19:00:00Z,28.1324,-97.0345,1017.8,1111122 
TCOON,ioos:station:TCOON:146:1,2014-03-19T20:00:00Z,28.1324,-97.0345,1017.1,1111122 
TCOON,ioos:station:TCOON:146:1,2014-03-19T21:00:00Z,28.1324,-97.0345,1016.8,1111122 
TCOON,ioos:station:TCOON:146:1,2014-03-19T22:00:00Z,28.1324,-97.0345,1016.9,1111122 
TCOON,ioos:station:TCOON:146:1,2014-03-19T23:00:00Z,28.1324,-97.0345,1017.2,1111122 
TCOON,ioos:station:TCOON:146:1,2014-03-20T00:00:00Z,28.1324,-97.0345,1017.9,1111122 
TCOON,ioos:station:TCOON:146:1,2014-03-20T01:00:00Z,28.1324,-97.0345,1018.5,1111122 
TCOON,ioos:station:TCOON:146:1,2014-03-20T02:00:00Z,28.1324,-97.0345,1019.4,1111122 
TCOON,ioos:station:TCOON:146:1,2014-03-20T03:00:00Z,28.1324,-97.0345,1019.9,1111122 
TCOON,ioos:station:TCOON:146:1,2014-03-20T04:00:00Z,28.1324,-97.0345,1020.3,1111122 
TCOON,ioos:station:TCOON:146:1,2014-03-20T05:00:00Z,28.1324,-97.0345,1020.4,1111122 
TCOON,ioos:station:TCOON:146:1,2014-03-20T07:00:00Z,28.1324,-97.0345,1020.5,1111122 
TCOON,ioos:station:TCOON:146:1,2014-03-20T08:00:00Z,28.1324,-97.0345,1020.2,1111122 
TCOON,ioos:station:TCOON:146:1,2014-03-20T09:00:00Z,28.1324,-97.0345,1019.8,1111122 
TCOON,ioos:station:TCOON:146:1,2014-03-20T10:00:00Z,28.1324,-97.0345,1020.1,1111122 
TCOON,ioos:station:TCOON:146:1,2014-03-20T11:00:00Z,28.1324,-97.0345,1020.3,1111122 
TCOON,ioos:station:TCOON:146:1,2014-03-20T12:00:00Z,28.1324,-97.0345,1020.9,1111122 
TCOON,ioos:station:TCOON:146:1,2014-03-20T13:00:00Z,28.1324,-97.0345,1021.5,1111122 
TCOON,ioos:station:TCOON:146:1,2014-03-20T14:00:00Z,28.1324,-97.0345,1022.0,1111122 
TCOON,ioos:station:TCOON:146:1,2014-03-20T15:00:00Z,28.1324,-97.0345,1022.2,1111122 
TCOON,ioos:station:TCOON:146:1,2014-03-20T16:00:00Z,28.1324,-97.0345,1022.8,1111122 
TCOON,ioos:station:TCOON:146:1,2014-03-20T17:00:00Z,28.1324,-97.0345,1022.3,1111122 
TCOON,ioos:station:TCOON:146:1,2014-03-20T18:00:00Z,28.1324,-97.0345,1021.6,1111122 
TCOON,ioos:station:TCOON:146:1,2014-03-20T19:00:00Z,28.1324,-97.0345,1020.7,1111122 
TCOON,ioos:station:TCOON:146:1,2014-03-20T21:00:00Z,28.1324,-97.0345,1018.7,1111122 
TCOON,ioos:station:TCOON:146:1,2014-03-20T22:00:00Z,28.1324,-97.0345,1018.1,1111122 
TCOON,ioos:station:TCOON:146:1,2014-03-20T23:00:00Z,28.1324,-97.0345,1018.2,1111122 